STARLINK-3691, 51960

Orbit data source: Space-Track

STARLINK-3691, 51960 is a payload satellite owned by SpaceX/Seattle (US) in LEO that was launched on Wed, 09 Mar 2022 UTC via an FALCON 9 launch vehicle from the Air Force Eastern Test Range (AFETR). Payload-class satellites include a variety of spacecraft equipped with specific instruments for various scientific and technological missions. These include communications satellites like Starlink; space stations such as the ISS; scientific satellites like the Hubble; Earth observation satellites from companies like Planet Labs, Umbra, and HawkEye 360; GPS; miniature CubeSats for education and research; and military/defense satellites.

Loading next visibility...
Identifier
51960, 2022-025E
Orbit
LEO
Country
Flag of USUS
Related business
Manufacturer
SpaceX/Seattle
Mission
Operational Commercial Communications
Bus & Motor
STARLINK, Unknown motor
Mass
297 kg wet, ~275 kg dry
Launch date (UTC)
2022-03-09 (4 years ago)
Launch vehicle
FALCON 9
Launch site
Air Force Eastern Test Range (AFETR)
Object type
Payload
Rocket body
Debris
Shape & HBR
Box + 1 Pan, 10.1 m
Radar Cross Section
13.562 m², Large (>1 m²)

Expand to show TLE details & history
Last TLE update: 10 hours ago

TLE from 10 hours ago
0 STARLINK-3691
1 51960U 22025E   25346.95071132  .00000072  00000-0  23716-4 0  9992
2 51960  53.0583  65.2349 0001762  76.5517 283.5669 15.06397162207775
Epoch: 2025-12-12T22:49Z
TLE epoch observation values (Epoch: 2025-12-12T22:49:01.458Z)
Latitude
0.00005°
Longitude
1.09389°
Altitude
547.814 km
Speed
7.589 km/s
True Right ascension
04h 20m 56s
True Declination
0° 00' 00"
Sunlit
Object was in full shadow at epoch
Visualization orbit readout
Latitude
Unknown
Longitude
Unknown
Altitude
Unknown
Speed
Unknown
Apparent Right ascension
Unknown
Apparent Declination
Unknown
Sunlit
N/A
Visualization observer readout
Local Sidereal Time
07:28:06
Azimuth
Unknown
Elevation
Unknown
Doppler factor
Unknown
Orbital elements
Apogee altitude
548.711 km
Perigee altitude
546.27 km
Semi-major axis
6,925.627 km
Eccentricity
0.00018
Inclination
53.0583°
RAAN
65.2349°
Arg. of periapsis
76.5517°
True anomaly
283.54727°
Mean anomaly
283.5669°
Eccentric anomaly
283.55709°
Mean motion
3.76578 °/min
Orbital period
95.6 mins
BSTAR
0.000023716
Loading maneuver chart data...
Computing Atmospheric mass density...
Loading historical data...
Loading historical data...
Loading historical data...
Loading historical data...
Loading historical data...
Loading historical data...
Loading historical data...

Documentation

Showing up to 5 results
|